Location: Miles
(41.4492°N, 81.6087°W)
Time: 19:37:25
(UTC+00:00)

Tiros 1 despin weight - Pass Details

Date: 18 September 2024
Orbit: 573 x 615 km, 48.2° (Epoch: 04 October)

Event Time Altitude Azimuth Distance (km) Brightness Sun altitude
Rises 12:20:55 0° 298° (WNW) 2,890 ? 12.3°
Reaches altitude 10° 12:23:14 10° 300° (WNW) 1,984 ? 12.8°
Maximum altitude 12:27:49 76° 27° (NNE) 640 ? 13.6°
Drops below altitude 10° 12:32:21 10° 112° (ESE) 1,969 ? 14.4°
Sets 12:34:38 0° 114° (ESE) 2,867 ? 14.9°
